TimeCEST,TemperatureF,Dew PointF,Humidity,Sea Level PressureIn,VisibilityMPH,Wind Direction,Wind SpeedMPH,Gust SpeedMPH,PrecipitationIn,Events,Conditions,WindDirDegrees,DateUTC
12:00 AM,39.2,24.8,56,30.33,-9999.0,North,5.8,-,N/A,,Clear,10,2013-10-02 22:00:00
12:30 AM,39.2,24.8,56,30.33,-9999.0,North,2.3,-,N/A,,Clear,350,2013-10-02 22:30:00
1:00 AM,35.6,23.0,60,30.33,-9999.0,North,6.9,-,N/A,,Clear,350,2013-10-02 23:00:00
1:30 AM,32.0,24.8,75,30.33,-9999.0,NNW,4.6,-,N/A,,Clear,340,2013-10-02 23:30:00
2:00 AM,33.8,24.8,70,30.36,-9999.0,NNW,5.8,-,N/A,,Clear,330,2013-10-03 00:00:00
2:30 AM,35.6,23.0,60,30.36,-9999.0,NNE,8.1,-,N/A,,Clear,20,2013-10-03 00:30:00
3:00 AM,35.6,23.0,60,30.36,-9999.0,NNE,6.9,-,N/A,,Clear,20,2013-10-03 01:00:00
3:30 AM,33.8,23.0,65,30.36,-9999.0,North,6.9,-,N/A,,Clear,360,2013-10-03 01:30:00
4:00 AM,33.8,23.0,65,30.36,-9999.0,North,8.1,-,N/A,,Clear,350,2013-10-03 02:00:00
4:30 AM,33.8,23.0,65,30.36,-9999.0,NNW,9.2,-,N/A,,Clear,340,2013-10-03 02:30:00
5:00 AM,33.8,23.0,65,30.36,-9999.0,NNW,10.4,-,N/A,,Clear,340,2013-10-03 03:00:00
5:30 AM,33.8,23.0,65,30.36,-9999.0,NNW,10.4,-,N/A,,Clear,340,2013-10-03 03:30:00
6:00 AM,33.8,23.0,65,30.39,-9999.0,NNW,6.9,-,N/A,,Clear,330,2013-10-03 04:00:00
6:30 AM,33.8,23.0,65,30.39,-9999.0,NNW,9.2,-,N/A,,Clear,340,2013-10-03 04:30:00
7:00 AM,35.6,23.0,60,30.39,-9999.0,NNW,9.2,-,N/A,,Clear,340,2013-10-03 05:00:00
7:30 AM,35.6,24.8,65,30.39,-9999.0,NNW,6.9,-,N/A,,Clear,330,2013-10-03 05:30:00
8:00 AM,37.4,24.8,60,30.42,-9999.0,North,8.1,-,N/A,,Clear,360,2013-10-03 06:00:00
8:30 AM,41.0,24.8,53,30.42,-9999.0,North,9.2,-,N/A,,Clear,10,2013-10-03 06:30:00
9:00 AM,44.6,23.0,43,30.42,-9999.0,NNE,12.7,-,N/A,,Clear,20,2013-10-03 07:00:00
9:30 AM,46.4,23.0,40,30.42,-9999.0,NNE,16.1,-,N/A,,Clear,20,2013-10-03 07:30:00
10:00 AM,46.4,21.2,37,30.42,-9999.0,NE,13.8,-,N/A,,Clear,40,2013-10-03 08:00:00
10:30 AM,48.2,21.2,34,30.45,-9999.0,NNE,12.7,-,N/A,,Clear,30,2013-10-03 08:30:00
11:00 AM,50.0,19.4,30,30.45,-9999.0,NNE,13.8,-,N/A,,Clear,20,2013-10-03 09:00:00
11:30 AM,48.2,19.4,32,30.45,-9999.0,ENE,12.7,-,N/A,,Clear,60,2013-10-03 09:30:00
12:00 PM,50.0,21.2,32,30.45,-9999.0,ENE,12.7,-,N/A,,Clear,60,2013-10-03 10:00:00
12:30 PM,51.8,21.2,30,30.45,-9999.0,NE,10.4,-,N/A,,Clear,50,2013-10-03 10:30:00
1:00 PM,50.0,23.0,35,30.42,-9999.0,ENE,9.2,-,N/A,,Clear,70,2013-10-03 11:00:00
1:30 PM,51.8,21.2,30,30.42,-9999.0,ENE,10.4,-,N/A,,Clear,60,2013-10-03 11:30:00
2:00 PM,51.8,21.2,30,30.42,-9999.0,ENE,6.9,-,N/A,,Clear,60,2013-10-03 12:00:00
2:30 PM,51.8,21.2,30,30.42,-9999.0,NNE,6.9,-,N/A,,Clear,30,2013-10-03 12:30:00
3:00 PM,51.8,21.2,30,30.42,-9999.0,North,6.9,-,N/A,,Clear,360,2013-10-03 13:00:00
3:30 PM,51.8,21.2,30,30.42,-9999.0,NNE,9.2,-,N/A,,Clear,30,2013-10-03 13:30:00
4:00 PM,51.8,21.2,30,30.42,-9999.0,NNE,4.6,-,N/A,,Clear,30,2013-10-03 14:00:00
4:30 PM,51.8,23.0,33,30.42,-9999.0,NE,10.4,-,N/A,,Clear,50,2013-10-03 14:30:00
5:00 PM,50.0,23.0,35,30.42,-9999.0,NNE,8.1,-,N/A,,Clear,20,2013-10-03 15:00:00
5:30 PM,50.0,23.0,35,30.42,-9999.0,ENE,6.9,-,N/A,,Clear,70,2013-10-03 15:30:00
6:00 PM,48.2,23.0,37,30.42,-9999.0,ENE,5.8,-,N/A,,Clear,60,2013-10-03 16:00:00
6:30 PM,46.4,24.8,43,30.45,-9999.0,ENE,5.8,-,N/A,,Clear,70,2013-10-03 16:30:00
7:00 PM,44.6,23.0,43,30.45,-9999.0,ENE,6.9,-,N/A,,Clear,70,2013-10-03 17:00:00
7:30 PM,42.8,23.0,46,30.48,-9999.0,East,9.2,-,N/A,,Clear,80,2013-10-03 17:30:00
8:00 PM,41.0,24.8,53,30.48,-9999.0,East,8.1,-,N/A,,Clear,80,2013-10-03 18:00:00
8:30 PM,39.2,23.0,52,30.48,-9999.0,East,6.9,-,N/A,,Clear,80,2013-10-03 18:30:00
9:00 PM,39.2,23.0,52,30.48,-9999.0,East,5.8,-,N/A,,Clear,90,2013-10-03 19:00:00
9:30 PM,39.2,24.8,56,30.48,-9999.0,East,4.6,-,N/A,,Clear,90,2013-10-03 19:30:00
10:00 PM,35.6,24.8,65,30.51,-9999.0,East,4.6,-,N/A,,Clear,80,2013-10-03 20:00:00
10:30 PM,33.8,23.0,65,30.51,-9999.0,Variable,3.5,-,N/A,,Clear,0,2013-10-03 20:30:00
11:00 PM,32.0,23.0,69,30.51,-9999.0,Variable,2.3,-,N/A,,Clear,0,2013-10-03 21:00:00
11:30 PM,33.8,23.0,65,30.51,-9999.0,Variable,1.2,-,N/A,,Clear,0,2013-10-03 21:30:00